When you browse on this site, cookies collect data to enhance your experience and personalize the content and advertising you see.
Visit our Privacy Policy to learn more. By continuing to use the site, you agree to this use of cookies and data.
  • In Hungary
  • List of Countries
  • For 7 days
  • Water Temperature
  • Satellite Maps
  • Weather Map
  • News
  • Weather Widgets
  • user-avatar
    Login

    Hourly Weather Bose-Bangu

    Today, 18 January, Friday

    Time Temperature Precipitation Wind Pressure Humidity
    00:00 +26°C° 0 mm 3 mps 738 mmHg 9%
    01:00 +26°C° 0 mm 3 mps 738 mmHg 9%
    02:00 +25°C° 0 mm 3 mps 738 mmHg 10%
    03:00 +25°C° 0 mm 3 mps 738 mmHg 10%
    04:00 +24°C° 0 mm 3 mps 738 mmHg 11%
    05:00 +24°C° 0 mm 3 mps 738 mmHg 11%
    06:00 +22°C° 0 mm 3 mps 738 mmHg 12%
    07:00 +26°C° 0 mm 4 mps 738 mmHg 11%
    08:00 +28°C° 0 mm 4 mps 738 mmHg 10%
    09:00 +30°C° 0 mm 5 mps 739 mmHg 8%
    10:00 +34°C° 0 mm 5 mps 738 mmHg 8%
    11:00 +37°C° 0 mm 5 mps 738 mmHg 7%
    12:00 +39°C° 0 mm 6 mps 738 mmHg 6%
    13:00 +40°C° 0 mm 5 mps 738 mmHg 6%
    14:00 +40°C° 0 mm 5 mps 737 mmHg 6%
    15:00 +41°C° 0 mm 4 mps 737 mmHg 6%
    16:00 +37°C° 0 mm 3 mps 737 mmHg 8%
    17:00 +34°C° 0 mm 3 mps 737 mmHg 10%
    18:00 +31°C° 0 mm 2 mps 737 mmHg 12%
    19:00 +30°C° 0 mm 2 mps 737 mmHg 12%
    20:00 +29°C° 0 mm 2 mps 737 mmHg 13%
    21:00 +29°C° 0 mm 2 mps 738 mmHg 13%
    22:00 +28°C° 0 mm 2 mps 738 mmHg 15%
    23:00 +27°C° 0 mm 2 mps 738 mmHg 16%

    Tomorrow, 19 January, Saturday

    Time Temperature Precipitation Wind Pressure Humidity
    00:00 +27°C° 0 mm 2 mps 738 mmHg 17%
    01:00 +26°C° 0 mm 2 mps 737 mmHg 18%
    02:00 +26°C° 0 mm 2 mps 737 mmHg 19%
    03:00 +25°C° 0 mm 1 mps 737 mmHg 20%
    04:00 +25°C° 0 mm 2 mps 737 mmHg 20%
    05:00 +25°C° 0 mm 2 mps 737 mmHg 21%
    06:00 +25°C° 0 mm 2 mps 737 mmHg 21%
    07:00 +27°C° 0 mm 2 mps 738 mmHg 18%
    08:00 +29°C° 0 mm 3 mps 739 mmHg 15%
    09:00 +31°C° 0 mm 3 mps 740 mmHg 12%
    10:00 +34°C° 0 mm 4 mps 739 mmHg 11%
    11:00 +35°C° 0 mm 4 mps 739 mmHg 10%
    12:00 +37°C° 0 mm 4 mps 739 mmHg 8%
    13:00 +37°C° 0 mm 4 mps 739 mmHg 8%
    14:00 +38°C° 0 mm 4 mps 738 mmHg 8%
    15:00 +38°C° 0 mm 4 mps 737 mmHg 8%
    16:00 +36°C° 0 mm 4 mps 738 mmHg 8%
    17:00 +35°C° 0 mm 4 mps 738 mmHg 8%
    18:00 +33°C° 0 mm 4 mps 738 mmHg 9%
    19:00 +32°C° 0 mm 5 mps 738 mmHg 8%
    20:00 +30°C° 0 mm 5 mps 739 mmHg 8%
    21:00 +29°C° 0 mm 5 mps 740 mmHg 8%
    22:00 +28°C° 0 mm 6 mps 740 mmHg 8%
    23:00 +28°C° 0 mm 6 mps 739 mmHg 8%

    Day after tomorrow, 20 January, Sunday

    Time Temperature Precipitation Wind Pressure Humidity
    00:00 +27°C° 0 mm 6 mps 739 mmHg 8%
    01:00 +26°C° 0 mm 6 mps 739 mmHg 8%
    02:00 +26°C° 0 mm 6 mps 739 mmHg 8%
    03:00 +24°C° 0 mm 6 mps 739 mmHg 8%
    04:00 +23°C° 0 mm 6 mps 739 mmHg 9%
    05:00 +23°C° 0 mm 6 mps 739 mmHg 9%
    06:00 +22°C° 0 mm 6 mps 739 mmHg 9%
    07:00 +23°C° 0 mm 6 mps 740 mmHg 9%
    08:00 +24°C° 0 mm 6 mps 741 mmHg 8%
    09:00 +27°C° 0 mm 6 mps 741 mmHg 8%
    10:00 +29°C° 0 mm 6 mps 741 mmHg 7%
    11:00 +32°C° 0 mm 6 mps 741 mmHg 7%
    12:00 +34°C° 0 mm 6 mps 740 mmHg 6%
    13:00 +34°C° 0 mm 5 mps 740 mmHg 6%
    14:00 +35°C° 0 mm 5 mps 739 mmHg 6%
    15:00 +36°C° 0 mm 4 mps 738 mmHg 6%
    16:00 +34°C° 0 mm 4 mps 738 mmHg 7%
    17:00 +31°C° 0 mm 3 mps 739 mmHg 7%
    18:00 +29°C° 0 mm 2 mps 739 mmHg 8%
    19:00 +28°C° 0 mm 2 mps 739 mmHg 8%
    20:00 +28°C° 0 mm 3 mps 740 mmHg 8%
    21:00 +27°C° 0 mm 3 mps 740 mmHg 8%
    22:00 +27°C° 0 mm 3 mps 740 mmHg 8%
    23:00 +26°C° 0 mm 3 mps 740 mmHg 8%

    21 January, Monday

    Time Temperature Precipitation Wind Pressure Humidity
    00:00 +25°C° 0 mm 3 mps 740 mmHg 8%
    01:00 +25°C° 0 mm 3 mps 740 mmHg 8%
    02:00 +24°C° 0 mm 3 mps 739 mmHg 8%
    03:00 +23°C° 0 mm 4 mps 739 mmHg 7%
    04:00 +22°C° 0 mm 4 mps 739 mmHg 7%
    05:00 +21°C° 0 mm 4 mps 739 mmHg 6%
    06:00 +21°C° 0 mm 4 mps 739 mmHg 6%
    07:00 +22°C° 0 mm 4 mps 740 mmHg 5%
    08:00 +25°C° 0 mm 4 mps 740 mmHg 5%
    09:00 +27°C° 0 mm 5 mps 741 mmHg 4%
    10:00 +29°C° 0 mm 4 mps 740 mmHg 4%
    11:00 +32°C° 0 mm 4 mps 740 mmHg 4%
    12:00 +34°C° 0 mm 3 mps 739 mmHg 4%
    13:00 +35°C° 0 mm 3 mps 739 mmHg 4%
    14:00 +36°C° 0 mm 3 mps 738 mmHg 5%
    15:00 +37°C° 0 mm 3 mps 737 mmHg 5%
    16:00 +35°C° 0 mm 3 mps 737 mmHg 6%
    17:00 +33°C° 0 mm 3 mps 738 mmHg 6%
    18:00 +30°C° 0 mm 3 mps 738 mmHg 7%
    19:00 +29°C° 0 mm 3 mps 738 mmHg 7%
    20:00 +28°C° 0 mm 3 mps 739 mmHg 7%
    21:00 +27°C° 0 mm 3 mps 739 mmHg 7%
    22:00 +27°C° 0 mm 3 mps 739 mmHg 7%
    23:00 +26°C° 0 mm 3 mps 739 mmHg 7%

    22 January, Tuesday

    Time Temperature Precipitation Wind Pressure Humidity
    00:00 +26°C° 0 mm 3 mps 739 mmHg 7%
    01:00 +25°C° 0 mm 3 mps 738 mmHg 7%
    02:00 +25°C° 0 mm 3 mps 738 mmHg 7%
    03:00 +24°C° 0 mm 3 mps 738 mmHg 7%
    04:00 +24°C° 0 mm 3 mps 738 mmHg 7%
    05:00 +22°C° 0 mm 3 mps 738 mmHg 6%
    06:00 +22°C° 0 mm 3 mps 739 mmHg 6%
    07:00 +25°C° 0 mm 3 mps 739 mmHg 5%
    08:00 +27°C° 0 mm 3 mps 740 mmHg 5%
    09:00 +29°C° 0 mm 3 mps 740 mmHg 4%
    10:00 +32°C° 0 mm 4 mps 740 mmHg 4%
    11:00 +34°C° 0 mm 4 mps 739 mmHg 4%
    12:00 +36°C° 0 mm 4 mps 739 mmHg 4%
    13:00 +36°C° 0 mm 4 mps 738 mmHg 5%
    14:00 +37°C° 0 mm 5 mps 737 mmHg 5%
    15:00 +39°C° 0 mm 6 mps 737 mmHg 5%
    16:00 +35°C° 0 mm 5 mps 737 mmHg 6%
    17:00 +33°C° 0 mm 4 mps 737 mmHg 7%
    18:00 +30°C° 0 mm 4 mps 737 mmHg 8%
    19:00 +29°C° 0 mm 4 mps 738 mmHg 8%
    20:00 +28°C° 0 mm 4 mps 738 mmHg 8%
    21:00 +27°C° 0 mm 4 mps 739 mmHg 8%
    22:00 +26°C° 0 mm 4 mps 739 mmHg 8%
    23:00 +25°C° 0 mm 4 mps 739 mmHg 8%

    23 January, Wednesday

    Time Temperature Precipitation Wind Pressure Humidity
    00:00 +25°C° 0 mm 5 mps 738 mmHg 7%
    01:00 +23°C° 0 mm 5 mps 738 mmHg 7%
    02:00 +22°C° 0 mm 5 mps 738 mmHg 6%
    03:00 +22°C° 0 mm 5 mps 738 mmHg 6%
    04:00 +21°C° 0 mm 5 mps 738 mmHg 6%
    05:00 +21°C° 0 mm 5 mps 738 mmHg 7%
    06:00 +20°C° 0 mm 5 mps 739 mmHg 7%
    07:00 +22°C° 0 mm 6 mps 739 mmHg 7%
    08:00 +23°C° 0 mm 7 mps 740 mmHg 7%
    09:00 +26°C° 0 mm 7 mps 741 mmHg 7%
    10:00 +28°C° 0 mm 7 mps 740 mmHg 6%
    11:00 +30°C° 0 mm 6 mps 740 mmHg 6%
    12:00 +33°C° 0 mm 6 mps 739 mmHg 5%
    13:00 +34°C° 0 mm 6 mps 739 mmHg 5%
    14:00 +35°C° 0 mm 5 mps 738 mmHg 5%
    15:00 +35°C° 0 mm 5 mps 737 mmHg 5%
    16:00 +33°C° 0 mm 5 mps 737 mmHg 6%
    17:00 +30°C° 0 mm 4 mps 737 mmHg 7%
    18:00 +28°C° 0 mm 4 mps 737 mmHg 8%
    19:00 +27°C° 0 mm 3 mps 738 mmHg 9%
    20:00 +26°C° 0 mm 3 mps 738 mmHg 10%
    21:00 +25°C° 0 mm 3 mps 739 mmHg 11%
    22:00 +24°C° 0 mm 3 mps 739 mmHg 11%
    23:00 +24°C° 0 mm 3 mps 739 mmHg 12%
    Show more